Location: Hylvaty SDH
(49.9612°N, 16.4057°E)
Time: 19:59:23
(UTC+02:00)

Transit 4A - Pass Details

Date: 11 August 2020
Orbit: 862 x 982 km, 66.8° (Epoch: 28 September)

Event Time Altitude Azimuth Distance (km) Brightness Sun altitude
Rises 09:22:37 0° 187° (S) 3,480 11.0 34.2°
Reaches altitude 10° 09:25:13 10° 180° (S) 2,561 10.5 34.6°
Maximum altitude 09:30:40 39° 113° (ESE) 1,354 12.3 35.4°
Drops below altitude 10° 09:36:17 10° 48° (NE) 2,653 10.7 36.3°
Sets 09:39:01 0° 41° (NE) 3,621 11.2 36.7°
